#timestamp,LO_Frequency,Hit,StdDev 
1674565215.9,286047004.2,N
1674565235.7,286047004.4,N
1674565255.6,286047002.2,N
1674565275.4,286047002.2,N
1674565295.3,286047002.8,N
1674565315.1,286047001.3,N
1674565316.0,286047001.3,N
1674565335.8,286046999.8,N
1674565355.7,286046998.9,N
1674565375.5,286046996.5,N
1674565395.3,286046999.5,N
1674565415.2,286046999.4,N
1674565435.0,286046996.5,N
1674565435.9,286046996.5,N
1674565455.8,286046999.3,N
1674565475.6,286046997.3,N
1674565495.4,286047001.2,N
1674565515.3,286046997.7,N
1674565535.1,286046999.4,N
1674565555.8,286046998.2,N
1674565575.7,286046998.5,N
1674565595.5,286047002.6,N
1674565615.4,286047001.9,N
1674565635.2,286047004.1,N
1674565655.0,286047005.6,N
1674565655.9,286047005.6,N
1674565675.8,286047004.2,N
1674565695.6,286047003.4,N
1674565715.4,286047005.9,N
1674565735.3,286047002.1,N
1674565755.1,286047000.3,N
1674565775.9,286047000.3,N
1674565795.7,286047002.3,N
1674565815.5,286047002.0,N
1674565835.4,286046998.1,N
1674565855.2,286047001.1,N
1674565875.1,286047002.5,N
1674565876.0,286047002.5,N
1674565895.8,286047000.2,N
1674565915.6,286046998.7,N
1674565935.5,286046999.6,N
1674565955.3,286047002.0,N
1674565975.1,286047002.1,N
1674565995.9,286046999.9,N
1674566015.7,286047002.6,N
1674566035.6,286047001.2,N
1674566055.4,286047000.4,N
1674566075.2,286047001.3,N
1674566095.1,286047001.3,N
1674566096.0,286047001.3,N
1674566115.8,286047002.6,N
1674566135.7,286047001.1,N
1674566155.5,286046999.3,N
1674566175.3,286046999.9,N
1674566195.2,286047002.7,N
1674566215.0,286047001.2,N
1674566215.9,286047001.2,N
1674566235.8,286046998.8,N
1674566255.6,286047000.4,N
1674566275.4,286047001.3,N
1674566295.3,286047003.6,N
1674566315.1,286047003.1,N
1674566335.9,286047004.4,Y
1674566355.7,286047000.3,P
1674566375.5,286046999.8,N
1674566395.4,286047003.8,P
1674566415.2,286047002.7,N
1674566435.1,286047002.4,N
1674566436.0,286047002.4,N
1674566455.8,286047001.4,N
1674566475.6,286047005.9,Y
1674566495.5,286047004.4,P
1674566515.3,286047003.4,N
1674566535.1,286047003.9,P
1674566555.9,286047000.1,N
1674566575.7,286046998.7,N
1674566595.6,286047000.6,N
1674566615.4,286046998.7,N
1674566635.2,286046999.1,N
1674566655.1,286046998.9,N
1674566656.0,286046998.9,N
1674566675.8,286046998.3,N
1674566695.7,286046996.6,N
1674566715.5,286046997.3,N
1674566735.3,286046999.5,N
1674566755.2,286047000.2,N
1674566775.0,286047001.8,N
1674566775.9,286047001.8,N
1674566795.8,286047003.9,N
1674566815.6,286046998.9,N
1674566835.4,286046998.2,N
1674566855.3,286046999.3,N
1674566875.1,286046999.1,N
1674566895.8,286046997.0,N
1674566915.7,286046997.0,N
1674566935.5,286046996.6,N
1674566955.4,286046999.3,N
1674566975.2,286046996.6,N
1674566995.0,286046999.2,N
1674566995.9,286046999.2,N
1674567015.8,286046999.4,N
1674567035.6,286046998.0,N
1674567055.4,286046996.6,N
1674567075.3,286046999.6,N
1674567095.1,286046998.6,N
1674567115.9,286046996.8,N
1674567135.7,286046997.6,N
1674567155.5,286046995.3,N
1674567175.4,286046998.7,N
1674567195.2,286046998.9,N
1674567215.1,286047001.1,N
1674567216.0,286047001.1,N
1674567235.8,286046998.6,N
1674567255.6,286047000.2,N
1674567275.5,286046998.6,N
1674567295.3,286046993.3,Y
1674567315.2,286046997.8,P
1674567335.9,286046999.1,N
1674567355.7,286046999.5,N
1674567375.6,286047000.9,N
1674567395.4,286046998.1,N
1674567415.2,286046996.6,Y
1674567435.1,286046998.5,P
1674567436.0,286046998.5,P
1674567455.8,286047000.0,N
1674567475.7,286047000.9,N
1674567495.5,286046998.5,N
1674567515.3,286047000.7,N
1674567535.2,286046999.7,N
1674567555.0,286047002.4,N
1674567555.9,286047002.4,N
1674567575.8,286046998.2,N
1674567595.6,286046999.8,N
1674567615.4,286047001.4,N
1674567635.3,286047002.5,N
1674567655.1,286047000.4,N
1674567675.8,286046996.6,N
1674567695.7,286046998.6,N
1674567715.5,286046998.8,N
1674567735.4,286047000.7,N
1674567755.2,286047001.8,N
1674567775.0,286047002.1,N
1674567775.9,286047002.1,N
1674567795.8,286047002.8,N
1674567815.6,286046998.6,N
1674567835.4,286046998.6,N
1674567855.3,286046998.1,N
1674567875.1,286046998.3,N
1674567895.9,286047000.7,N
1674567915.7,286046998.9,N
1674567935.5,286047000.0,N
1674567955.4,286047000.0,N
1674567975.2,286047000.0,N
1674567995.0,286047000.4,N
1674567995.9,286047000.4,N
1674568015.8,286046999.8,N
1674568035.6,286047001.3,N
1674568055.5,286047002.2,N
1674568075.3,286046998.6,N
1674568095.1,286047001.2,N
1674568115.9,286046999.9,N
1674568135.7,286047003.2,N
1674568155.6,286047000.6,N
1674568175.4,286047002.4,N
1674568195.2,286046998.5,N
1674568215.1,286046998.0,N
1674568216.0,286046998.0,N
1674568235.8,286046997.1,N
1674568255.6,286046993.7,Y
1674568275.5,286046997.2,P
1674568295.3,286046996.8,N
1674568315.2,286046997.4,N
1674568335.9,286046999.4,N
1674568355.7,286046996.9,N
1674568375.6,286046996.9,N
1674568395.4,286046998.6,N
1674568415.2,286046999.7,N
1674568435.1,286046998.9,N
1674568436.0,286046998.9,N
1674568455.8,286046997.8,N
1674568475.7,286046998.2,N
1674568495.5,286047001.4,N
1674568515.3,286047000.0,N
1674568535.2,286047002.8,N
1674568555.0,286047000.4,N
1674568555.9,286047000.4,N
1674568575.7,286047000.7,N
1674568595.6,286047000.5,N
1674568615.4,286046998.1,N
1674568635.3,286047000.4,N
1674568655.1,286047000.2,N
1674568656.0,286047000.2,N
1674568675.8,286046998.0,N
1674568695.7,286046997.1,N
1674568715.5,286046998.4,N
1674568735.3,286047001.1,N
1674568755.2,286047002.4,N
1674568775.0,286047001.6,N
1674568775.9,286047001.6,N
1674568795.8,286046999.7,N
